Location: ????????
(54.6123°N, 39.2099°E)
Time: 13:59:08
(UTC+00:00)

Cosmos 1812 Rocket - Pass Details

Date: 19 May 2025
Orbit: 601 x 624 km, 82.5° (Epoch: 19 June)

Event Time Altitude Azimuth Distance (km) Brightness Sun altitude
Exits shadow 19:11:59 - 186° (S) 2,022 5.7 -10.6°
Reaches altitude 10° 19:12:10 10° 186° (S) 1,943 5.6 -10.6°
Maximum altitude 19:16:28 81° 100° (E) 618 3.5 -10.9°
Drops below altitude 10° 19:20:48 10° 13° (NNE) 1,963 6.9 -11.2°
Sets 19:23:02 0° 13° (NNE) 2,874 7.8 -11.4°
